^^
Your Local Weather - Clay, NY Station Historical Data
Daily Summary for March 21, 2017 Units:  English    Metric   Both
« Previous Day
Next Day »
Daily Weekly Monthly Yearly Custom
  High: Low: Average:
Temperature: 48.8 °F 32.3 °F 39 °F
Dew Point: 34.0 °F 24.1 °F 29 °F
Humidity: 85% 40% 69%
Wind Speed: 8.0mph 0.0mph 1.9mph
Wind Gust: 16.0mph - -
Wind- - West
Pressure: 30.00 in 29.82 in -
Precipitation: 0.00 in    
Historical Graphs
 
 
Tabular Data for March 21, 2017
Time Temperature Dew Point Pressure Wind Wind Speed Wind Gust Humidity Rainfall Rate (Hourly) solar
00:02 33.6 °F 27.8 °F 30.00 in Calm     79% 0.00 in 0 W/m2
00:08 33.6 °F 27.8 °F 30.00 in Calm     79% 0.00 in 0 W/m2
00:14 33.5 °F 27.7 °F 30.00 in Calm     79% 0.00 in 0 W/m2
00:20 33.4 °F 27.6 °F 30.00 in Calm     79% 0.00 in 0 W/m2
00:26 33.3 °F 27.8 °F 29.99 in Calm     80% 0.00 in 0 W/m2
00:32 33.2 °F 28.0 °F 29.99 in Calm     81% 0.00 in 0 W/m2
00:38 33.1 °F 27.9 °F 29.99 in Calm     81% 0.00 in 0 W/m2
00:44 33.1 °F 27.9 °F 29.98 in Calm     81% 0.00 in 0 W/m2
00:50 33.1 °F 27.9 °F 29.98 in Calm     81% 0.00 in 0 W/m2
00:56 33.2 °F 28.0 °F 29.98 in Calm     81% 0.00 in 0 W/m2
01:02 33.2 °F 28.3 °F 29.98 in Calm     82% 0.00 in 0 W/m2
01:08 33.1 °F 28.2 °F 29.98 in Calm     82% 0.00 in 0 W/m2
01:14 33.2 °F 28.3 °F 29.98 in Calm     82% 0.00 in 0 W/m2
01:20 33.1 °F 28.2 °F 29.98 in Calm     82% 0.00 in 0 W/m2
01:26 33.1 °F 28.2 °F 29.98 in Calm     82% 0.00 in 0 W/m2
01:32 33.1 °F 27.9 °F 29.98 in Calm     81% 0.00 in 0 W/m2
01:38 33.1 °F 27.9 °F 29.98 in Calm     81% 0.00 in 0 W/m2
01:44 33.1 °F 27.9 °F 29.98 in Calm     81% 0.00 in 0 W/m2
01:50 33.1 °F 28.2 °F 29.97 in Calm     82% 0.00 in 0 W/m2
01:56 33.1 °F 28.2 °F 29.97 in Calm     82% 0.00 in 0 W/m2
02:02 33.0 °F 28.1 °F 29.96 in Calm     82% 0.00 in 0 W/m2
02:08 32.8 °F 28.2 °F 29.96 in Calm     83% 0.00 in 0 W/m2
02:14 32.9 °F 28.3 °F 29.96 in Calm     83% 0.00 in 0 W/m2
02:20 32.9 °F 28.3 °F 29.95 in Calm     83% 0.00 in 0 W/m2
02:26 32.9 °F 28.3 °F 29.95 in Calm     83% 0.00 in 0 W/m2
02:32 33.0 °F 28.4 °F 29.95 in Calm     83% 0.00 in 0 W/m2
02:38 32.9 °F 28.3 °F 29.94 in Calm     83% 0.00 in 0 W/m2
02:44 32.9 °F 28.3 °F 29.94 in Calm     83% 0.00 in 0 W/m2
02:50 32.8 °F 28.2 °F 29.94 in Calm     83% 0.00 in 0 W/m2
02:56 32.6 °F 28.0 °F 29.94 in Calm     83% 0.00 in 0 W/m2
03:02 32.5 °F 27.9 °F 29.94 in Calm     83% 0.00 in 0 W/m2
03:08 32.4 °F 28.1 °F 29.93 in Calm     84% 0.00 in 0 W/m2
03:14 32.4 °F 28.1 °F 29.93 in Calm     84% 0.00 in 0 W/m2
03:20 32.4 °F 28.1 °F 29.93 in Calm     84% 0.00 in 0 W/m2
03:26 32.4 °F 28.1 °F 29.93 in Calm     84% 0.00 in 0 W/m2
03:32 32.4 °F 28.4 °F 29.93 in Calm     85% 0.00 in 0 W/m2
03:38 32.4 °F 28.4 °F 29.93 in Calm     85% 0.00 in 0 W/m2
03:44 32.4 °F 28.1 °F 29.93 in Calm     84% 0.00 in 0 W/m2
03:50 32.3 °F 28.0 °F 29.93 in Calm     84% 0.00 in 0 W/m2
03:56 32.4 °F 28.1 °F 29.93 in Calm     84% 0.00 in 0 W/m2
04:02 32.3 °F 28.3 °F 29.93 in Calm     85% 0.00 in 0 W/m2
04:08 32.3 °F 28.3 °F 29.93 in Calm     85% 0.00 in 0 W/m2
04:14 32.3 °F 28.3 °F 29.93 in Calm     85% 0.00 in 0 W/m2
04:20 32.4 °F 28.4 °F 29.93 in Calm     85% 0.00 in 0 W/m2
04:26 32.4 °F 28.4 °F 29.93 in Calm     85% 0.00 in 0 W/m2
04:32 32.5 °F 28.5 °F 29.93 in Calm     85% 0.00 in 0 W/m2
04:38 32.4 °F 28.1 °F 29.93 in Calm     84% 0.00 in 0 W/m2
04:44 32.5 °F 28.2 °F 29.93 in Calm     84% 0.00 in 0 W/m2
04:50 32.6 °F 28.6 °F 29.93 in Calm     85% 0.00 in 0 W/m2
04:56 32.7 °F 28.4 °F 29.93 in Calm     84% 0.00 in 0 W/m2
05:02 32.8 °F 28.5 °F 29.93 in Calm     84% 0.00 in 0 W/m2
05:08 32.9 °F 28.6 °F 29.93 in Calm     84% 0.00 in 0 W/m2
05:14 32.9 °F 28.6 °F 29.93 in Calm     84% 0.00 in 0 W/m2
05:20 32.9 °F 28.6 °F 29.93 in Calm     84% 0.00 in 0 W/m2
05:26 32.8 °F 28.5 °F 29.93 in Calm     84% 0.00 in 0 W/m2
05:32 32.8 °F 28.5 °F 29.93 in Calm     84% 0.00 in 0 W/m2
05:38 32.8 °F 28.5 °F 29.93 in Calm     84% 0.00 in 0 W/m2
05:44 32.8 °F 28.5 °F 29.93 in Calm     84% 0.00 in 0 W/m2
05:50 32.8 °F 28.5 °F 29.93 in Calm     84% 0.00 in 0 W/m2
05:56 32.9 °F 28.6 °F 29.93 in Calm     84% 0.00 in 0 W/m2
06:02 32.8 °F 28.5 °F 29.93 in Calm     84% 0.00 in 0 W/m2
06:08 32.9 °F 28.6 °F 29.93 in Calm     84% 0.00 in 0 W/m2
06:14 32.9 °F 28.6 °F 29.93 in Calm     84% 0.00 in 0 W/m2
06:20 32.9 °F 28.6 °F 29.93 in Calm     84% 0.00 in 0 W/m2
06:26 32.9 °F 28.6 °F 29.92 in Calm     84% 0.00 in 0 W/m2
06:32 33.0 °F 28.7 °F 29.92 in Calm     84% 0.00 in 0 W/m2
06:38 32.9 °F 28.6 °F 29.92 in Calm     84% 0.00 in 0 W/m2
06:44 33.0 °F 28.7 °F 29.92 in Calm     84% 0.00 in 0 W/m2
06:50 33.1 °F 28.8 °F 29.92 in Calm     84% 0.00 in 0 W/m2
06:56 33.2 °F 28.9 °F 29.92 in Calm     84% 0.00 in 0 W/m2
07:02 33.2 °F 28.9 °F 29.91 in Calm     84% 0.00 in 0 W/m2
07:08 33.2 °F 28.9 °F 29.91 in Calm     84% 0.00 in 0 W/m2
07:14 33.3 °F 29.0 °F 29.91 in Calm     84% 0.00 in 0 W/m2
07:20 33.3 °F 29.0 °F 29.91 in Calm     84% 0.00 in 7 W/m2
07:26 33.3 °F 29.0 °F 29.91 in Calm     84% 0.00 in 7 W/m2
07:32 33.3 °F 29.0 °F 29.91 in Calm     84% 0.00 in 9 W/m2
07:38 33.4 °F 29.1 °F 29.91 in Calm     84% 0.00 in 11 W/m2
07:44 33.6 °F 29.3 °F 29.91 in Calm     84% 0.00 in 12 W/m2
07:50 33.6 °F 29.3 °F 29.91 in Calm     84% 0.00 in 16 W/m2
07:56 33.8 °F 29.5 °F 29.91 in Calm     84% 0.00 in 16 W/m2
08:02 33.9 °F 29.3 °F 29.91 in Calm     83% 0.00 in 21 W/m2
08:08 34.0 °F 29.4 °F 29.91 in Calm     83% 0.00 in 25 W/m2
08:14 34.3 °F 29.7 °F 29.91 in Calm     83% 0.00 in 25 W/m2
08:20 34.5 °F 29.9 °F 29.91 in Calm     83% 0.00 in 30 W/m2
08:26 34.8 °F 30.2 °F 29.91 in Calm     83% 0.00 in 37 W/m2
08:32 35.0 °F 30.1 °F 29.91 in Calm     82% 0.00 in 39 W/m2
08:38 35.2 °F 30.3 °F 29.91 in Calm     82% 0.00 in 40 W/m2
08:44 35.4 °F 30.1 °F 29.91 in Calm     81% 0.00 in 42 W/m2
08:50 35.7 °F 30.4 °F 29.91 in Calm     81% 0.00 in 60 W/m2
08:56 36.0 °F 30.4 °F 29.91 in Calm     80% 0.00 in 39 W/m2
09:02 36.3 °F 30.4 °F 29.91 in Calm   1.0 mph 79% 0.00 in 62 W/m2
09:14 37.0 °F 30.8 °F 29.91 in Calm   1.0 mph 78% 0.00 in 67 W/m2
09:20 37.3 °F 30.7 °F 29.91 in Calm   1.0 mph 77% 0.00 in 114 W/m2
09:26 37.6 °F 30.7 °F 29.91 in Calm   1.0 mph 76% 0.00 in 149 W/m2
09:32 38.1 °F 31.2 °F 29.91 in WSW 1.0 mph 3.0 mph 76% 0.00 in 193 W/m2
09:38 38.6 °F 31.4 °F 29.91 in WSW 1.0 mph 3.0 mph 75% 0.00 in 155 W/m2
09:44 38.8 °F 31.2 °F 29.91 in SW 1.0 mph 4.0 mph 74% 0.00 in 116 W/m2
09:50 38.9 °F 31.3 °F 29.91 in SW 1.0 mph 2.0 mph 74% 0.00 in 128 W/m2
10:02 39.2 °F 31.3 °F 29.91 in SW 1.0 mph 1.0 mph 73% 0.00 in 146 W/m2
10:08 39.5 °F 31.6 °F 29.91 in SW 1.0 mph 1.0 mph 73% 0.00 in 209 W/m2
10:14 39.9 °F 31.6 °F 29.91 in SW 1.0 mph 2.0 mph 72% 0.00 in 181 W/m2
10:20 40.0 °F 31.4 °F 29.91 in SSW 1.0 mph 2.0 mph 71% 0.00 in 179 W/m2
10:26 40.2 °F 31.5 °F 29.91 in WSW 2.0 mph 3.0 mph 71% 0.00 in 206 W/m2
10:32 40.3 °F 31.6 °F 29.91 in West 3.0 mph 3.0 mph 71% 0.00 in 200 W/m2
10:38 40.4 °F 31.7 °F 29.91 in West 2.0 mph 3.0 mph 71% 0.00 in 255 W/m2
10:44 40.7 °F 32.0 °F 29.91 in WSW 2.0 mph 2.0 mph 71% 0.00 in 251 W/m2
10:50 40.8 °F 32.1 °F 29.91 in WNW 2.0 mph 2.0 mph 71% 0.00 in 200 W/m2
10:56 40.8 °F 32.1 °F 29.91 in West 2.0 mph 4.0 mph 71% 0.00 in 135 W/m2
11:02 40.6 °F 31.9 °F 29.91 in NW 3.0 mph 5.0 mph 71% 0.00 in 169 W/m2
11:08 40.4 °F 32.1 °F 29.91 in WNW 3.0 mph 5.0 mph 72% 0.00 in 132 W/m2
11:14 40.4 °F 32.1 °F 29.91 in WSW 2.0 mph 3.0 mph 72% 0.00 in 160 W/m2
11:20 40.3 °F 32.0 °F 29.91 in NW 2.0 mph 2.0 mph 72% 0.00 in 88 W/m2
11:26 40.2 °F 32.2 °F 29.91 in West 2.0 mph 3.0 mph 73% 0.00 in 107 W/m2
11:32 40.2 °F 32.2 °F 29.91 in West 3.0 mph 3.0 mph 73% 0.00 in 144 W/m2
11:38 40.3 °F 32.3 °F 29.91 in SSW 2.0 mph 3.0 mph 73% 0.00 in 148 W/m2
11:44 40.5 °F 32.5 °F 29.90 in SW 2.0 mph 3.0 mph 73% 0.00 in 237 W/m2
11:50 40.6 °F 32.6 °F 29.91 in WSW 2.0 mph 2.0 mph 73% 0.00 in 202 W/m2
11:56 40.8 °F 32.8 °F 29.91 in WSW 2.0 mph 3.0 mph 73% 0.00 in 218 W/m2
12:02 40.9 °F 32.6 °F 29.91 in WSW 2.0 mph 3.0 mph 72% 0.00 in 258 W/m2
12:08 40.9 °F 32.6 °F 29.90 in West 3.0 mph 5.0 mph 72% 0.00 in 281 W/m2
12:12 41.1 °F 32.8 °F 29.90 in WSW 3.0 mph 5.0 mph 72% 0.00 in 373 W/m2
12:18 41.4 °F 33.0 °F 29.90 in WSW 3.0 mph 5.0 mph 72% 0.00 in 253 W/m2
12:24 41.5 °F 32.8 °F 29.90 in WSW 3.0 mph 5.0 mph 71% 0.00 in 287 W/m2
12:30 41.5 °F 33.1 °F 29.90 in West 3.0 mph 6.0 mph 72% 0.00 in 292 W/m2
12:36 41.4 °F 33.0 °F 29.90 in SW 4.0 mph 6.0 mph 72% 0.00 in 169 W/m2
12:42 41.0 °F 32.7 °F 29.90 in WSW 4.0 mph 4.0 mph 72% 0.00 in 185 W/m2
12:48 41.1 °F 33.1 °F 29.90 in West 4.0 mph 4.0 mph 73% 0.00 in 264 W/m2
12:54 41.4 °F 33.4 °F 29.90 in West 3.0 mph 4.0 mph 73% 0.00 in 227 W/m2
13:00 41.6 °F 33.6 °F 29.90 in West 3.0 mph 3.0 mph 73% 0.00 in 301 W/m2
13:06 42.0 °F 33.6 °F 29.90 in NW 2.0 mph 4.0 mph 72% 0.00 in 220 W/m2
13:12 42.2 °F 33.5 °F 29.90 in WNW 3.0 mph 5.0 mph 71% 0.00 in 364 W/m2
13:18 42.3 °F 33.2 °F 29.90 in West 4.0 mph 5.0 mph 70% 0.00 in 390 W/m2
13:24 42.2 °F 32.8 °F 29.90 in West 5.0 mph 6.0 mph 69% 0.00 in 297 W/m2
13:30 42.1 °F 32.3 °F 29.89 in NW 5.0 mph 5.0 mph 68% 0.00 in 272 W/m2
13:36 42.2 °F 32.4 °F 29.89 in NW 5.0 mph 11.0 mph 68% 0.00 in 318 W/m2
13:42 42.4 °F 32.2 °F 29.89 in West 5.0 mph 7.0 mph 67% 0.00 in 338 W/m2
13:48 42.7 °F 32.5 °F 29.89 in West 5.0 mph 8.0 mph 67% 0.00 in 401 W/m2
13:54 42.7 °F 32.1 °F 29.89 in WNW 5.0 mph 9.0 mph 66% 0.00 in 371 W/m2
14:00 42.7 °F 32.1 °F 29.89 in WNW 6.0 mph 6.0 mph 66% 0.00 in 329 W/m2
14:06 42.8 °F 32.2 °F 29.88 in WNW 5.0 mph 6.0 mph 66% 0.00 in 330 W/m2
14:12 43.1 °F 32.1 °F 29.88 in NW 4.0 mph 4.0 mph 65% 0.00 in 329 W/m2
14:18 43.4 °F 32.0 °F 29.88 in WNW 4.0 mph 5.0 mph 64% 0.00 in 308 W/m2
14:24 43.4 °F 32.4 °F 29.88 in NW 4.0 mph 6.0 mph 65% 0.00 in 287 W/m2
14:30 43.4 °F 32.4 °F 29.88 in NW 4.0 mph 4.0 mph 65% 0.00 in 288 W/m2
14:36 43.5 °F 32.5 °F 29.88 in NW 4.0 mph 5.0 mph 65% 0.00 in 244 W/m2
14:42 43.8 °F 32.4 °F 29.87 in WNW 4.0 mph 6.0 mph 64% 0.00 in 276 W/m2
14:48 43.8 °F 32.4 °F 29.87 in WNW 4.0 mph 6.0 mph 64% 0.00 in 255 W/m2
15:00 44.8 °F 33.0 °F 29.86 in WNW 3.0 mph 3.0 mph 63% 0.00 in 244 W/m2
15:06 44.7 °F 32.9 °F 29.86 in WNW 3.0 mph 5.0 mph 63% 0.00 in 269 W/m2
15:12 45.3 °F 33.0 °F 29.86 in NW 2.0 mph 3.0 mph 62% 0.00 in 311 W/m2
15:16 45.5 °F 33.2 °F 29.86 in WNW 2.0 mph 3.0 mph 62% 0.00 in 323 W/m2
15:22 45.6 °F 33.3 °F 29.85 in WNW 3.0 mph 3.0 mph 62% 0.00 in 276 W/m2
15:28 47.2 °F 34.0 °F 29.85 in WNW 3.0 mph 3.0 mph 60% 0.00 in 816 W/m2
15:34 47.6 °F 33.5 °F 29.85 in WNW 3.0 mph 3.0 mph 58% 0.00 in 837 W/m2
15:40 47.4 °F 33.4 °F 29.85 in West 3.0 mph 5.0 mph 58% 0.00 in 304 W/m2
15:46 48.3 °F 33.3 °F 29.85 in WNW 4.0 mph 5.0 mph 56% 0.00 in 721 W/m2
15:52 48.7 °F 33.7 °F 29.85 in West 3.0 mph 4.0 mph 56% 0.00 in 698 W/m2
15:58 48.2 °F 32.8 °F 29.85 in NW 3.0 mph 4.0 mph 55% 0.00 in 729 W/m2
16:04 47.9 °F 32.5 °F 29.85 in WNW 5.0 mph 5.0 mph 55% 0.00 in 642 W/m2
16:10 48.3 °F 32.9 °F 29.85 in NW 4.0 mph 4.0 mph 55% 0.00 in 635 W/m2
16:16 48.2 °F 32.3 °F 29.85 in WNW 3.0 mph 4.0 mph 54% 0.00 in 619 W/m2
16:22 48.0 °F 31.7 °F 29.85 in West 4.0 mph 4.0 mph 53% 0.00 in 568 W/m2
16:28 47.9 °F 31.1 °F 29.84 in WNW 4.0 mph 8.0 mph 52% 0.00 in 589 W/m2
16:34 48.0 °F 30.7 °F 29.84 in WNW 4.0 mph 6.0 mph 51% 0.00 in 591 W/m2
16:40 48.0 °F 30.7 °F 29.84 in WSW 5.0 mph 5.0 mph 51% 0.00 in 504 W/m2
16:46 48.1 °F 30.3 °F 29.83 in WNW 4.0 mph 6.0 mph 50% 0.00 in 475 W/m2
16:52 48.5 °F 29.2 °F 29.83 in SSW 3.0 mph 3.0 mph 47% 0.00 in 432 W/m2
16:58 48.8 °F 28.9 °F 29.83 in WNW 3.0 mph 4.0 mph 46% 0.00 in 413 W/m2
17:04 48.3 °F 27.4 °F 29.83 in West 3.0 mph 4.0 mph 44% 0.00 in 397 W/m2
17:10 48.2 °F 27.3 °F 29.83 in West 4.0 mph 6.0 mph 44% 0.00 in 380 W/m2
17:16 48.5 °F 27.6 °F 29.83 in WNW 3.0 mph 6.0 mph 44% 0.00 in 359 W/m2
17:22 48.4 °F 27.5 °F 29.83 in West 3.0 mph 7.0 mph 44% 0.00 in 338 W/m2
17:28 48.2 °F 27.3 °F 29.83 in WNW 4.0 mph 7.0 mph 44% 0.00 in 322 W/m2
17:34 48.2 °F 26.7 °F 29.83 in West 3.0 mph 8.0 mph 43% 0.00 in 299 W/m2
17:40 48.2 °F 27.3 °F 29.83 in West 4.0 mph 4.0 mph 44% 0.00 in 283 W/m2
17:46 48.3 °F 26.8 °F 29.83 in West 3.0 mph 4.0 mph 43% 0.00 in 265 W/m2
17:52 48.5 °F 26.4 °F 29.83 in WNW 2.0 mph 3.0 mph 42% 0.00 in 241 W/m2
17:58 48.4 °F 26.9 °F 29.83 in SW 2.0 mph 3.0 mph 43% 0.00 in 221 W/m2
18:04 48.3 °F 26.2 °F 29.83 in West 2.0 mph 3.0 mph 42% 0.00 in 206 W/m2
18:10 48.1 °F 26.1 °F 29.83 in WSW 3.0 mph 3.0 mph 42% 0.00 in 172 W/m2
18:16 48.3 °F 26.2 °F 29.82 in WSW 2.0 mph 3.0 mph 42% 0.00 in 165 W/m2
18:22 48.4 °F 25.2 °F 29.82 in WNW 1.0 mph 2.0 mph 40% 0.00 in 142 W/m2
18:28 48.2 °F 25.0 °F 29.82 in WSW 2.0 mph 3.0 mph 40% 0.00 in 113 W/m2
18:34 47.8 °F 25.2 °F 29.82 in WSW 2.0 mph 2.0 mph 41% 0.00 in 47 W/m2
18:40 47.4 °F 25.4 °F 29.82 in WSW 1.0 mph 1.0 mph 42% 0.00 in 30 W/m2
18:46 46.9 °F 25.0 °F 29.82 in Calm   2.0 mph 42% 0.00 in 30 W/m2
18:52 46.6 °F 25.3 °F 29.82 in WSW 1.0 mph 1.0 mph 43% 0.00 in 46 W/m2
18:58 46.5 °F 24.6 °F 29.82 in SW 2.0 mph 5.0 mph 42% 0.00 in 28 W/m2
19:04 46.3 °F 25.0 °F 29.82 in SW 3.0 mph 3.0 mph 43% 0.00 in 14 W/m2
19:10 45.8 °F 25.6 °F 29.82 in SSW 1.0 mph 1.0 mph 45% 0.00 in 9 W/m2
19:16 45.4 °F 26.3 °F 29.82 in SW 2.0 mph 3.0 mph 47% 0.00 in 5 W/m2
19:22 45.1 °F 27.1 °F 29.82 in WSW 2.0 mph 2.0 mph 49% 0.00 in 0 W/m2
19:28 44.8 °F 27.3 °F 29.82 in SSW 2.0 mph 6.0 mph 50% 0.00 in 0 W/m2
19:34 44.5 °F 27.5 °F 29.82 in WSW 2.0 mph 2.0 mph 51% 0.00 in 0 W/m2
19:40 44.3 °F 27.3 °F 29.82 in SW 1.0 mph 1.0 mph 51% 0.00 in 0 W/m2
19:46 43.9 °F 27.4 °F 29.82 in SW 1.0 mph 3.0 mph 52% 0.00 in 0 W/m2
19:52 43.5 °F 27.0 °F 29.82 in SW 1.0 mph 1.0 mph 52% 0.00 in 0 W/m2
19:58 43.4 °F 27.4 °F 29.82 in South 1.0 mph 1.0 mph 53% 0.00 in 0 W/m2
20:04 43.3 °F 27.3 °F 29.82 in South 1.0 mph 1.0 mph 53% 0.00 in 0 W/m2
20:10 43.2 °F 27.2 °F 29.82 in Calm     53% 0.00 in 0 W/m2
20:16 43.1 °F 27.1 °F 29.82 in South 1.0 mph 2.0 mph 53% 0.00 in 0 W/m2
20:22 43.0 °F 27.0 °F 29.82 in SSW 1.0 mph 1.0 mph 53% 0.00 in 0 W/m2
20:28 42.6 °F 27.1 °F 29.82 in SW 1.0 mph 2.0 mph 54% 0.00 in 0 W/m2
20:34 42.5 °F 26.1 °F 29.83 in West 2.0 mph 3.0 mph 52% 0.00 in 0 W/m2
20:40 42.7 °F 25.8 °F 29.83 in West 2.0 mph 3.0 mph 51% 0.00 in 0 W/m2
20:46 43.5 °F 25.1 °F 29.84 in West 5.0 mph 11.0 mph 48% 0.00 in 0 W/m2
20:52 42.7 °F 25.8 °F 29.85 in WNW 8.0 mph 16.0 mph 51% 0.00 in 0 W/m2
20:58 42.0 °F 26.1 °F 29.86 in NW 8.0 mph 16.0 mph 53% 0.00 in 0 W/m2
21:04 41.5 °F 26.1 °F 29.86 in North 7.0 mph 8.0 mph 54% 0.00 in 0 W/m2
21:10 41.0 °F 26.1 °F 29.86 in NW 6.0 mph 6.0 mph 55% 0.00 in 0 W/m2
21:16 40.7 °F 25.8 °F 29.86 in WNW 7.0 mph 8.0 mph 55% 0.00 in 0 W/m2
21:22 40.3 °F 25.8 °F 29.87 in WNW 6.0 mph 8.0 mph 56% 0.00 in 0 W/m2
21:28 39.9 °F 25.5 °F 29.87 in North 6.0 mph 8.0 mph 56% 0.00 in 0 W/m2
21:34 39.6 °F 25.2 °F 29.88 in WNW 6.0 mph 8.0 mph 56% 0.00 in 0 W/m2
21:40 39.3 °F 24.9 °F 29.88 in WNW 5.0 mph 5.0 mph 56% 0.00 in 0 W/m2
21:46 39.0 °F 24.6 °F 29.88 in WNW 5.0 mph 8.0 mph 56% 0.00 in 0 W/m2
21:54 38.8 °F 24.4 °F 29.88 in NW 6.0 mph 8.0 mph 56% 0.00 in 0 W/m2
22:00 38.5 °F 24.1 °F 29.88 in WNW 5.0 mph 9.0 mph 56% 0.00 in 0 W/m2
22:06 38.5 °F 24.1 °F 29.88 in WNW 5.0 mph 9.0 mph 56% 0.00 in 0 W/m2
22:12 38.2 °F 24.7 °F 29.88 in WNW 4.0 mph 5.0 mph 58% 0.00 in 0 W/m2
22:18 38.0 °F 24.5 °F 29.89 in WNW 4.0 mph 5.0 mph 58% 0.00 in 0 W/m2
22:24 37.8 °F 24.7 °F 29.89 in West 3.0 mph 4.0 mph 59% 0.00 in 0 W/m2
22:30 37.7 °F 25.1 °F 29.89 in NW 3.0 mph 7.0 mph 60% 0.00 in 0 W/m2
22:36 37.6 °F 25.0 °F 29.89 in West 4.0 mph 7.0 mph 60% 0.00 in 0 W/m2
22:42 37.4 °F 25.2 °F 29.89 in WSW 4.0 mph 11.0 mph 61% 0.00 in 0 W/m2
22:54 37.1 °F 24.9 °F 29.89 in NW 4.0 mph 9.0 mph 61% 0.00 in 0 W/m2
23:06 36.8 °F 24.6 °F 29.89 in West 5.0 mph 5.0 mph 61% 0.00 in 0 W/m2
23:12 36.6 °F 24.4 °F 29.89 in WNW 4.0 mph 5.0 mph 61% 0.00 in 0 W/m2
23:18 36.4 °F 24.6 °F 29.89 in NW 4.0 mph 5.0 mph 62% 0.00 in 0 W/m2
23:24 36.2 °F 24.8 °F 29.89 in WNW 4.0 mph 4.0 mph 63% 0.00 in 0 W/m2
23:30 36.1 °F 24.7 °F 29.90 in NW 4.0 mph 4.0 mph 63% 0.00 in 0 W/m2
23:36 36.0 °F 25.0 °F 29.90 in WNW 5.0 mph 6.0 mph 64% 0.00 in 0 W/m2
23:42 35.9 °F 25.3 °F 29.89 in WNW 4.0 mph 4.0 mph 65% 0.00 in 0 W/m2
23:48 36.0 °F 25.4 °F 29.89 in WSW 5.0 mph 10.0 mph 65% 0.00 in 0 W/m2
23:54 36.0 °F 25.7 °F 29.89 in WNW 5.0 mph 5.0 mph 66% 0.00 in 0 W/m2
Country Meadow, Clay, NY, USA
Compliments of Weather Underground - 2 mb